Location: Opava
(49.9500°N, 17.9170°E)
Time: 11:12:32
(UTC+02:00)

ISS - Visible Passes

Search period start: 15 May 2021 00:00
Search period end: 25 May 2021 00:00
Orbit: 417 x 422 km, 51.6° (Epoch: 15 May)

Date Brightness Start Highest point End Pass type
(mag) Time Alt. Az. Time Alt. Az. Time Alt. Az.
15 May -3.5 00:28:51 10° W 00:32:13 67° N 00:35:35 10° ENE visible
15 May -3.7 02:05:49 10° WNW 02:09:12 79° NNE 02:12:34 10° E visible
15 May -3.1 03:42:46 10° W 03:45:51 33° SSW 03:48:54 10° SSE visible
15 May -3.2 22:04:55 10° SW 22:08:02 36° SSE 22:11:11 10° E visible
15 May -3.7 23:41:21 10° W 23:44:44 75° NNW 23:48:07 10° ENE visible
16 May -3.5 01:18:20 10° WNW 01:21:43 69° N 01:25:05 10° E visible
16 May -3.6 02:55:13 10° WNW 02:58:29 46° SSW 03:01:44 10° SE visible
16 May -2.7 21:17:53 10° SSW 21:20:43 25° SE 21:23:34 10° E visible
16 May -3.8 22:53:53 10° WSW 22:57:15 90° WSW 23:00:39 10° ENE visible
17 May -3.4 00:30:51 10° W 00:34:13 63° N 00:37:34 10° E visible
17 May -3.9 02:07:44 10° WNW 02:11:05 64° SSW 02:14:26 10° ESE visible
17 May -2.1 03:45:18 10° W 03:47:25 16° SW 03:49:31 10° S visible
17 May -3.9 22:06:27 10° WSW 22:09:49 71° SSE 22:13:11 10° ENE visible
17 May -3.3 23:43:21 10° W 23:46:42 63° N 23:49:59 10° E visible
18 May -3.3 01:20:16 10° WNW 01:22:53 51° W 01:22:53 51° W visible
18 May -3.6 21:19:07 10° SW 21:22:23 52° SSE 21:25:41 10° ENE visible
18 May -3.4 22:55:50 10° W 22:59:12 66° N 23:02:34 10° ENE visible
19 May -3.7 00:32:48 10° WNW 00:36:10 79° NNE 00:36:27 71° ENE visible
19 May -3.6 22:08:19 10° W 22:11:41 75° NNW 22:15:04 10° ENE visible
19 May -3.5 23:45:18 10° WNW 23:48:41 69° N 23:50:16 28° E visible
20 May -1.7 01:22:11 10° WNW 01:23:11 18° W 01:23:11 18° W visible
20 May -3.7 21:20:50 10° WSW 21:24:12 90° NNE 21:27:35 10° ENE visible
20 May -3.3 22:57:49 10° W 23:01:09 63° N 23:04:09 12° E visible
21 May -3.0 00:34:40 10° WNW 00:37:05 41° W 00:37:05 41° W visible
21 May -3.3 22:10:17 10° W 22:13:38 63° N 22:16:59 10° E visible
21 May -3.9 23:47:11 10° WNW 23:50:34 84° SSW 23:51:02 64° ESE visible
22 May -3.3 21:22:45 10° W 21:26:06 66° N 21:29:28 10° ENE visible
22 May -3.7 22:59:42 10° WNW 23:03:05 80° NNE 23:05:00 24° E visible
23 May -1.8 00:36:40 10° W 00:37:56 19° W 00:37:56 19° W visible
23 May -3.5 22:12:12 10° WNW 22:15:34 69° N 22:18:55 10° E visible
23 May -3.2 23:49:05 10° WNW 23:51:57 43° SW 23:51:57 43° SW visible
24 May -3.3 21:24:40 10° W 21:28:02 63° N 21:31:24 10° E visible
24 May -3.8 23:01:33 10° WNW 23:04:54 64° SSW 23:05:58 38° SE visible
